| time (UTC) | temp F | wind direction | speed MPH | gust MPH | rain 1hr in | rain 24hr in | rain mn in | humidity % | barometer mb |
| 20260901094521 | 74 | 230 | 0.0 | 3.0 | 0.00 | 0.00 | 0.00 | 68 | 1015.1 |
| 20260901093019 | 74 | 229 | 2.0 | 4.0 | 0.00 | 0.00 | 0.00 | 68 | 1015.1 |
| 20260901091518 | 74 | 225 | 2.0 | 5.0 | 0.00 | 0.00 | 0.00 | 69 | 1015.2 |
| 20260901090018 | 73 | 234 | 1.0 | 5.0 | 0.00 | 0.00 | 0.00 | 69 | 1015.1 |
| 20260901084517 | 73 | 233 | 2.0 | 5.0 | 0.00 | 0.00 | 0.00 | 69 | 1015.1 |
| 20260901083023 | 73 | 222 | 2.0 | 7.0 | 0.00 | 0.00 | 0.00 | 70 | 1015.0 |
| 20260901081518 | 73 | 240 | 2.0 | 6.0 | 0.00 | 0.00 | 0.00 | 70 | 1015.0 |
| 20260901080016 | 73 | 248 | 4.0 | 8.0 | 0.00 | 0.00 | 0.00 | 70 | 1015.1 |
| 20260901074514 | 73 | 229 | 3.0 | 6.0 | 0.00 | 0.00 | 0.00 | 70 | 1015.1 |
| 20260901073011 | 73 | 226 | 1.0 | 4.0 | 0.00 | 0.00 | 0.00 | 69 | 1015.1 |
| 20260901071510 | 73 | 227 | 2.0 | 7.0 | 0.00 | 0.00 | 0.00 | 69 | 1015.3 |
| 20260901070021 | 73 | 231 | 2.0 | 6.0 | 0.00 | 0.00 | 0.00 | 69 | 1015.2 |
| 20260901064508 | 73 | 224 | 4.0 | 7.0 | 0.00 | 0.00 | 0.00 | 68 | 1015.3 |
| 20260901063006 | 73 | 198 | 3.0 | 8.0 | 0.00 | 0.00 | 0.00 | 68 | 1015.5 |
| 20260901061504 | 74 | 215 | 3.0 | 6.0 | 0.00 | 0.00 | 0.00 | 67 | 1015.4 |
| 20260901060002 | 74 | 226 | 3.0 | 6.0 | 0.00 | 0.00 | 0.00 | 67 | 1015.8 |
| 20260901054501 | 74 | 211 | 4.0 | 8.0 | 0.00 | 0.00 | 0.00 | 66 | 1016.0 |
| 20260901053059 | 74 | 234 | 4.0 | 7.0 | 0.00 | 0.00 | 0.00 | 66 | 1016.2 |
| 20260901051558 | 75 | 225 | 3.0 | 6.0 | 0.00 | 0.00 | 0.00 | 66 | 1016.1 |
| 20260901050055 | 75 | 201 | 4.0 | 6.0 | 0.00 | 0.00 | 0.00 | 66 | 1015.9 |
| 20260901044555 | 75 | 207 | 0.0 | 3.0 | 0.00 | 0.00 | 0.00 | 65 | 1015.6 |
| 20260901043052 | 75 | 219 | 2.0 | 6.0 | 0.00 | 0.00 | 0.00 | 65 | 1015.7 |
| 20260901041611 | 76 | 224 | 2.0 | 6.0 | 0.00 | 0.00 | 0.00 | 65 | 1015.6 |
| 20260901040051 | 76 | 228 | 2.0 | 5.0 | 0.00 | 0.00 | 0.00 | 65 | 1015.6 |
| 20260901034546 | 76 | 222 | 2.0 | 6.0 | 0.00 | 0.00 | 0.00 | 65 | 1015.3 |
| 20260901033045 | 76 | 236 | 4.0 | 9.0 | 0.00 | 0.00 | 0.00 | 66 | 1014.9 |
| 20260901031544 | 76 | 229 | 1.0 | 7.0 | 0.00 | 0.00 | 0.00 | 65 | 1014.9 |
| 20260901030043 | 77 | 217 | 3.0 | 7.0 | 0.00 | 0.00 | 0.00 | 65 | 1015.0 |
| 20260901024543 | 77 | 223 | 3.0 | 7.0 | 0.00 | 0.00 | 0.00 | 65 | 1015.4 |
| 20260901023044 | 77 | 173 | 0.0 | 9.0 | 0.00 | 0.00 | 0.00 | 64 | 1015.4 |
| 20260901021547 | 77 | 210 | 2.0 | 4.0 | 0.00 | 0.00 | 0.00 | 64 | 1015.7 |
| 20260901020042 | 78 | 201 | 1.0 | 4.0 | 0.00 | 0.00 | 0.00 | 63 | 1016.0 |
| 20260901014541 | 78 | 202 | 2.0 | 5.0 | 0.00 | 0.00 | 0.00 | 63 | 1016.1 |
| 20260901013039 | 78 | 200 | 0.0 | 0.0 | 0.00 | 0.00 | 0.00 | 63 | 1015.8 |
| 20260901011538 | 78 | 200 | 0.0 | 3.0 | 0.00 | 0.00 | 0.00 | 62 | 1015.8 |
| 20260901010040 | 79 | 199 | 1.0 | 4.0 | 0.00 | 0.00 | 0.00 | 62 | 1015.7 |
| 20260901004544 | 79 | 201 | 0.0 | 3.0 | 0.00 | 0.00 | 0.00 | 62 | 1015.6 |
| 20260901003037 | 79 | 201 | 0.0 | 3.0 | 0.00 | 0.00 | 0.00 | 61 | 1015.3 |
| 20260901001541 | 79 | 219 | 0.0 | 2.0 | 0.00 | 0.00 | 0.00 | 60 | 1015.2 |
| 20260901000036 | 80 | 219 | 1.0 | 4.0 | 0.00 | 0.00 | 0.00 | 60 | 1015.1 |
| 20260831234536 | 80 | 224 | 1.0 | 3.0 | 0.00 | 0.00 | 0.00 | 59 | 1015.1 |
| 20260831233034 | 80 | 224 | 0.0 | 3.0 | 0.00 | 0.00 | 0.00 | 59 | 1015.2 |
| 20260831231544 | 81 | 224 | 1.0 | 3.0 | 0.00 | 0.00 | 0.00 | 58 | 1015.1 |
| 20260831230038 | 81 | 226 | 1.0 | 3.0 | 0.00 | 0.00 | 0.00 | 58 | 1015.2 |
| 20260831224530 | 81 | 229 | 0.0 | 3.0 | 0.00 | 0.00 | 0.00 | 57 | 1015.6 |
| 20260831223035 | 81 | 229 | 0.0 | 2.0 | 0.00 | 0.00 | 0.00 | 57 | 1015.6 |
| 20260831221532 | 81 | 229 | 1.0 | 3.0 | 0.00 | 0.00 | 0.00 | 56 | 1015.5 |
| 20260831220029 | 82 | 229 | 1.0 | 3.0 | 0.00 | 0.00 | 0.00 | 55 | 1015.5 |
| 20260831214529 | 82 | 229 | 1.0 | 4.0 | 0.00 | 0.00 | 0.00 | 54 | 1015.5 |
| 20260831213032 | 82 | 181 | 2.0 | 5.0 | 0.00 | 0.00 | 0.00 | 54 | 1015.7 |
| 20260831211531 | 83 | 169 | 2.0 | 4.0 | 0.00 | 0.00 | 0.00 | 52 | 1015.7 |
| 20260831210025 | 83 | 148 | 1.0 | 5.0 | 0.00 | 0.00 | 0.00 | 53 | 1015.8 |
| 20260831204528 | 84 | 273 | 2.0 | 6.0 | 0.00 | 0.00 | 0.00 | 50 | 1015.8 |
| 20260831203027 | 83 | 211 | 2.0 | 8.0 | 0.00 | 0.00 | 0.00 | 52 | 1016.3 |
| 20260831201519 | 82 | 225 | 2.0 | 4.0 | 0.00 | 0.00 | 0.00 | 54 | 1016.4 |
| 20260831200022 | 81 | 225 | 2.0 | 6.0 | 0.00 | 0.00 | 0.00 | 55 | 1016.5 |
| 20260831194517 | 80 | 237 | 2.0 | 4.0 | 0.00 | 0.00 | 0.00 | 57 | 1016.7 |
| 20260831193023 | 80 | 244 | 4.0 | 7.0 | 0.00 | 0.00 | 0.00 | 56 | 1016.8 |
| 20260831191515 | 80 | 230 | 1.0 | 4.0 | 0.00 | 0.00 | 0.00 | 57 | 1016.9 |
| 20260831190016 | 80 | 206 | 3.0 | 6.0 | 0.00 | 0.00 | 0.00 | 56 | 1017.0 |
| 20260831184514 | 80 | 235 | 3.0 | 6.0 | 0.00 | 0.00 | 0.00 | 56 | 1017.1 |
| 20260831183014 | 80 | 238 | 2.0 | 5.0 | 0.00 | 0.00 | 0.00 | 56 | 1017.1 |
| 20260831181513 | 80 | 238 | 5.0 | 9.0 | 0.00 | 0.00 | 0.00 | 55 | 1017.2 |
| 20260831180012 | 80 | 283 | 4.0 | 8.0 | 0.00 | 0.00 | 0.00 | 55 | 1017.4 |
| 20260831174511 | 79 | 267 | 2.0 | 9.0 | 0.00 | 0.00 | 0.00 | 55 | 1017.4 |
| 20260831173010 | 80 | 276 | 7.0 | 12.0 | 0.00 | 0.00 | 0.00 | 54 | 1017.4 |
| 20260831171511 | 81 | 246 | 6.0 | 10.0 | 0.00 | 0.00 | 0.00 | 52 | 1017.4 |
| 20260831170010 | 81 | 252 | 7.0 | 14.0 | 0.00 | 0.00 | 0.00 | 52 | 1017.2 |
| 20260831164505 | 81 | 261 | 5.0 | 10.0 | 0.00 | 0.00 | 0.00 | 54 | 1017.3 |
| 20260831163007 | 81 | 225 | 3.0 | 9.0 | 0.00 | 0.00 | 0.00 | 55 | 1017.4 |
| 20260831161506 | 81 | 225 | 2.0 | 12.0 | 0.00 | 0.00 | 0.00 | 56 | 1017.8 |
| 20260831154606 | 79 | 205 | 1.0 | 3.0 | 0.00 | 0.00 | 0.00 | 58 | 1018.0 |
| 20260831153053 | 77 | 202 | 1.0 | 6.0 | 0.00 | 0.00 | 0.00 | 59 | 1018.0 |
| 20260831151551 | 76 | 207 | 2.0 | 5.0 | 0.00 | 0.00 | 0.00 | 60 | 1018.0 |
| 20260831150049 | 74 | 174 | 2.0 | 6.0 | 0.00 | 0.00 | 0.00 | 62 | 1017.7 |
| 20260831144546 | 74 | 194 | 2.0 | 5.0 | 0.00 | 0.00 | 0.00 | 62 | 1017.7 |
| 20260831143051 | 73 | 149 | 0.0 | 6.0 | 0.00 | 0.00 | 0.00 | 63 | 1017.7 |
| 20260831141538 | 72 | 186 | 1.0 | 6.0 | 0.00 | 0.00 | 0.00 | 64 | 1017.8 |
| 20260831140035 | 71 | 118 | 0.0 | 3.0 | 0.00 | 0.00 | 0.00 | 65 | 1018.0 |
| 20260831134531 | 71 | 119 | 0.0 | 4.0 | 0.00 | 0.00 | 0.00 | 65 | 1017.8 |
| 20260831133028 | 70 | 140 | 2.0 | 4.0 | 0.00 | 0.00 | 0.00 | 65 | 1017.6 |
| 20260831131534 | 70 | 126 | 1.0 | 3.0 | 0.00 | 0.00 | 0.00 | 65 | 1017.6 |
| 20260831130021 | 70 | 128 | 2.0 | 4.0 | 0.00 | 0.00 | 0.00 | 65 | 1017.8 |
| 20260831124525 | 69 | 134 | 0.0 | 3.0 | 0.00 | 0.00 | 0.00 | 65 | 1018.0 |
| 20260831123015 | 69 | 134 | 0.0 | 2.0 | 0.00 | 0.00 | 0.00 | 65 | 1017.7 |
| 20260831121515 | 69 | 134 | 0.0 | 3.0 | 0.00 | 0.00 | 0.00 | 65 | 1017.8 |
| 20260831120011 | 69 | 134 | 1.0 | 3.0 | 0.00 | 0.00 | 0.00 | 65 | 1017.9 |
| 20260831114512 | 68 | 134 | 1.0 | 3.0 | 0.00 | 0.00 | 0.00 | 65 | 1017.7 |
| 20260831113008 | 68 | 134 | 1.0 | 3.0 | 0.00 | 0.00 | 0.00 | 65 | 1017.8 |
| 20260831111505 | 68 | 135 | 2.0 | 3.0 | 0.00 | 0.00 | 0.00 | 65 | 1017.6 |
| 20260831110003 | 69 | 135 | 1.0 | 3.0 | 0.00 | 0.00 | 0.00 | 64 | 1017.5 |
| 20260831104510 | 69 | 135 | 0.0 | 0.0 | 0.00 | 0.00 | 0.00 | 64 | 1017.3 |
| 20260831103001 | 69 | 135 | 0.0 | 0.0 | 0.00 | 0.00 | 0.00 | 64 | 1017.2 |
| 20260831101502 | 69 | 135 | 0.0 | 3.0 | 0.00 | 0.00 | 0.00 | 64 | 1016.9 |
| 20260831100003 | 69 | 135 | 0.0 | 3.0 | 0.00 | 0.00 | 0.00 | 64 | 1017.1 |